GCR6677 ZLYL-ZLIC

Flight info

Callsign GCR6677
Flight time N/A
Altitude 23600
Route OKIS2B OKISO B215 YHD
Aircraft E190/M-SDE3GILORVW/S

Departure

Time 2026-05-04 01:03
Airport Yulin Yuyang Airport (ZLYL)

Arrival

Time N/A
Airport Yinchuan Hedong International Airport (ZLIC)
Time Latitude Longitude Altitude Speed Heading
2026-05-04 00:22 38.36147 109.59596 3882 ft 0 kts 68°
2026-05-04 00:43 38.36147 109.59598 3881 ft 1 kts 68°
2026-05-04 00:43 38.36148 109.59600 3881 ft 0 kts 68°
2026-05-04 00:44 38.36143 109.59584 3882 ft 2 kts 68°
2026-05-04 00:44 38.36139 109.59573 3882 ft 1 kts 67°
2026-05-04 00:45 38.36132 109.59557 3883 ft 2 kts 48°
2026-05-04 00:45 38.36121 109.59545 3883 ft 2 kts 31°
2026-05-04 00:45 38.36107 109.59538 3884 ft 2 kts 13°
2026-05-04 00:45 38.36092 109.59537 3884 ft 2 kts 355°
2026-05-04 00:46 38.36078 109.59541 3884 ft 1 kts 337°
2026-05-04 00:46 38.36076 109.59542 3884 ft 0 kts 336°
2026-05-04 00:54 38.36116 109.59518 3884 ft 13 kts 333°
2026-05-04 00:55 38.36226 109.59448 3885 ft 12 kts 321°
2026-05-04 00:55 38.36218 109.59368 3887 ft 8 kts 248°
2026-05-04 00:55 38.36203 109.59309 3888 ft 5 kts 252°
2026-05-04 00:55 38.36198 109.59272 3889 ft 3 kts 270°
2026-05-04 00:56 38.36205 109.59232 3890 ft 6 kts 305°
2026-05-04 00:56 38.36245 109.59263 3888 ft 7 kts 45°
2026-05-04 00:56 38.36275 109.59255 3888 ft 5 kts 267°
2026-05-04 00:56 38.36280 109.59216 3889 ft 3 kts 289°
2026-05-04 00:57 38.36294 109.59194 3889 ft 4 kts 338°
2026-05-04 00:57 38.36350 109.59161 3889 ft 13 kts 335°
2026-05-04 00:57 38.36430 109.59095 3890 ft 13 kts 319°
2026-05-04 00:57 38.36503 109.59045 3891 ft 11 kts 336°
2026-05-04 00:58 38.36583 109.58998 3890 ft 14 kts 335°
2026-05-04 00:58 38.36692 109.58931 3890 ft 19 kts 340°
2026-05-04 00:58 38.36827 109.58871 3891 ft 22 kts 334°
2026-05-04 00:58 38.36971 109.58775 3892 ft 20 kts 331°
2026-05-04 00:59 38.37093 109.58702 3892 ft 16 kts
2026-05-04 00:59 38.37185 109.58669 3892 ft 11 kts 320°
2026-05-04 00:59 38.37203 109.58585 3892 ft 8 kts 255°
2026-05-04 00:59 38.37179 109.58519 3892 ft 8 kts 239°
2026-05-04 01:00 38.37151 109.58467 3893 ft 5 kts 208°
2026-05-04 01:00 38.37120 109.58469 3894 ft 3 kts 159°
2026-05-04 01:00 38.37098 109.58481 3894 ft 3 kts 157°
2026-05-04 01:00 38.37084 109.58488 3894 ft 0 kts 158°
2026-05-04 01:02 38.37043 109.58510 3894 ft 18 kts 158°
2026-05-04 01:02 38.36732 109.58695 3895 ft 79 kts 156°
2026-05-04 01:02 38.36048 109.59065 3897 ft 130 kts 158°
2026-05-04 01:02 38.35110 109.59600 3958 ft 160 kts 153°
2026-05-04 01:03 38.34187 109.60314 4434 ft 160 kts 147°
2026-05-04 01:03 38.33252 109.61221 4765 ft 170 kts 144°
2026-05-04 01:03 38.32379 109.62116 5312 ft 169 kts 150°
2026-05-04 01:03 38.31216 109.62715 5494 ft 190 kts 175°
2026-05-04 01:04 38.29890 109.62648 5964 ft 195 kts 198°
2026-05-04 01:04 38.28681 109.61929 6571 ft 194 kts 219°
2026-05-04 01:04 38.27780 109.60675 7204 ft 193 kts 238°
2026-05-04 01:04 38.27092 109.59245 7804 ft 194 kts 239°
2026-05-04 01:05 38.26384 109.57768 8391 ft 196 kts 238°
2026-05-04 01:05 38.25677 109.56294 8959 ft 197 kts 237°
2026-05-04 01:05 38.24851 109.54929 9491 ft 200 kts 226°
2026-05-04 01:05 38.23823 109.53722 10030 ft 202 kts 219°
2026-05-04 01:06 38.22708 109.52660 10531 ft 205 kts 215°
2026-05-04 01:06 38.21732 109.51834 10935 ft 208 kts 213°
2026-05-04 01:06 38.20485 109.50855 11439 ft 212 kts 211°
2026-05-04 01:06 38.19181 109.49913 11776 ft 224 kts 209°
2026-05-04 01:07 38.17799 109.48912 12224 ft 230 kts 208°
2026-05-04 01:07 38.16414 109.47916 12772 ft 231 kts 209°
2026-05-04 01:07 38.15013 109.46923 13320 ft 233 kts 208°
2026-05-04 01:07 38.13694 109.45744 13856 ft 234 kts 225°
2026-05-04 01:08 38.12724 109.44093 14365 ft 236 kts 244°
2026-05-04 01:08 38.12013 109.42219 14883 ft 238 kts 246°
2026-05-04 01:08 38.11290 109.40314 15413 ft 238 kts 246°
2026-05-04 01:08 38.10574 109.38438 15938 ft 238 kts 247°
2026-05-04 01:09 38.09855 109.36562 16460 ft 238 kts 247°
2026-05-04 01:09 38.09135 109.34688 16974 ft 238 kts 247°
2026-05-04 01:09 38.08414 109.32815 17466 ft 238 kts 248°
2026-05-04 01:09 38.07685 109.30922 17957 ft 238 kts 248°
2026-05-04 01:10 38.06965 109.29054 18442 ft 238 kts 249°
2026-05-04 01:10 38.06485 109.27073 18899 ft 233 kts 268°
2026-05-04 01:10 38.06509 109.25047 19355 ft 230 kts 280°
2026-05-04 01:10 38.06689 109.23064 19818 ft 230 kts 280°
2026-05-04 01:11 38.06870 109.21059 20288 ft 230 kts 280°
2026-05-04 01:11 38.07050 109.19044 20754 ft 230 kts 281°
2026-05-04 01:11 38.07231 109.17029 21211 ft 230 kts 281°
2026-05-04 01:11 38.07408 109.15035 21655 ft 230 kts 281°
2026-05-04 01:12 38.07587 109.13023 22097 ft 230 kts 281°
2026-05-04 01:12 38.07767 109.10999 22532 ft 230 kts 281°
2026-05-04 01:12 38.07944 109.08998 22953 ft 230 kts 281°
2026-05-04 01:12 38.08123 109.06984 23362 ft 231 kts 282°
2026-05-04 01:13 38.08298 109.04988 23661 ft 226 kts 282°
2026-05-04 01:13 38.08482 109.02924 23712 ft 240 kts 281°
2026-05-04 01:13 38.08669 109.00803 23707 ft 245 kts 281°
2026-05-04 01:13 38.08857 108.98644 23696 ft 244 kts 281°
2026-05-04 01:14 38.09044 108.96509 23692 ft 243 kts 281°
2026-05-04 01:14 38.09230 108.94377 23698 ft 242 kts 281°
2026-05-04 01:14 38.09413 108.92277 23701 ft 242 kts 281°
2026-05-04 01:14 38.09596 108.90163 23700 ft 242 kts 281°
2026-05-04 01:15 38.09780 108.88046 23700 ft 241 kts 281°
2026-05-04 01:15 38.09963 108.85939 23702 ft 241 kts 281°
2026-05-04 01:15 38.10147 108.83809 23701 ft 241 kts 281°
2026-05-04 01:15 38.10328 108.81712 23701 ft 241 kts 281°
2026-05-04 01:16 38.10510 108.79589 23701 ft 241 kts 281°
2026-05-04 01:16 38.10693 108.77472 23698 ft 242 kts 281°
2026-05-04 01:16 38.10874 108.75354 23706 ft 243 kts 281°
2026-05-04 01:16 38.11055 108.73231 23702 ft 243 kts 281°
2026-05-04 01:17 38.11238 108.71088 23706 ft 244 kts 281°
2026-05-04 01:17 38.11418 108.68975 23705 ft 243 kts 281°
2026-05-04 01:17 38.11601 108.66821 23704 ft 243 kts 281°
2026-05-04 01:17 38.11779 108.64714 23699 ft 242 kts 281°
2026-05-04 01:18 38.11959 108.62588 23701 ft 243 kts 281°
2026-05-04 01:18 38.12139 108.60460 23700 ft 242 kts 281°
2026-05-04 01:18 38.12320 108.58313 23666 ft 245 kts 281°
2026-05-04 01:18 38.12500 108.56177 23645 ft 244 kts 281°
2026-05-04 01:19 38.12679 108.54037 23695 ft 245 kts 281°
2026-05-04 01:19 38.12861 108.51874 23696 ft 245 kts 281°
2026-05-04 01:19 38.13039 108.49735 23695 ft 246 kts 281°
2026-05-04 01:19 38.13220 108.47568 23707 ft 252 kts 281°
2026-05-04 01:20 38.13412 108.45276 23739 ft 270 kts 280°
2026-05-04 01:20 38.13617 108.42808 23741 ft 290 kts 280°
2026-05-04 01:20 38.13833 108.40198 23740 ft 309 kts 280°
2026-05-04 01:20 38.14062 108.37412 23735 ft 328 kts 279°
2026-05-04 01:21 38.14306 108.34437 23731 ft 347 kts 279°
2026-05-04 01:21 38.14562 108.31314 23728 ft 365 kts 278°
2026-05-04 01:21 38.14872 108.28038 23727 ft 382 kts 280°
2026-05-04 01:21 38.15210 108.24663 23724 ft 399 kts 279°
2026-05-04 01:22 38.15566 108.21081 23721 ft 414 kts 279°
2026-05-04 01:22 38.15925 108.17438 23712 ft 420 kts 279°
2026-05-04 01:22 38.16285 108.13773 23704 ft 420 kts 279°
2026-05-04 01:22 38.16646 108.10098 23703 ft 419 kts 279°
2026-05-04 01:23 38.17004 108.06428 23702 ft 419 kts 279°
2026-05-04 01:23 38.17359 108.02788 23702 ft 419 kts 279°
2026-05-04 01:23 38.17713 107.99146 23702 ft 419 kts 279°
2026-05-04 01:23 38.18071 107.95456 23703 ft 420 kts 279°
2026-05-04 01:24 38.18426 107.91773 23701 ft 420 kts 279°
2026-05-04 01:24 38.18647 107.89471 23698 ft 421 kts 279°
2026-05-04 01:24 38.19005 107.85750 23675 ft 421 kts 279°
2026-05-04 01:24 38.19358 107.82069 22116 ft 432 kts 279°
2026-05-04 01:25 38.19716 107.78316 20531 ft 437 kts 279°
2026-05-04 01:25 38.20079 107.74519 19102 ft 438 kts 279°
2026-05-04 01:25 38.20580 107.70684 17712 ft 440 kts 282°
2026-05-04 01:25 38.21269 107.66942 16483 ft 437 kts 285°
2026-05-04 01:26 38.22131 107.63324 15413 ft 431 kts 289°
2026-05-04 01:26 38.23180 107.59779 14385 ft 425 kts 292°
2026-05-04 01:26 38.24223 107.56403 14082 ft 399 kts 286°
2026-05-04 01:26 38.24669 107.53169 15193 ft 351 kts 273°
2026-05-04 01:27 38.24534 107.50230 16622 ft 330 kts 261°
2026-05-04 01:27 38.24000 107.47495 17816 ft 315 kts 261°
2026-05-04 01:27 38.23792 107.44785 18586 ft 312 kts 272°
2026-05-04 01:27 38.23917 107.41989 19132 ft 317 kts 277°
2026-05-04 01:28 38.24154 107.39184 19621 ft 324 kts 279°
2026-05-04 01:28 38.24437 107.36357 20147 ft 330 kts 279°
2026-05-04 01:28 38.24749 107.33438 20755 ft 332 kts 279°
2026-05-04 01:28 38.25065 107.30546 21389 ft 334 kts 279°
2026-05-04 01:29 38.25386 107.27639 22001 ft 336 kts 279°
2026-05-04 01:29 38.25711 107.24698 22574 ft 338 kts 280°
2026-05-04 01:29 38.26040 107.21725 23121 ft 341 kts 280°
2026-05-04 01:29 38.26365 107.18773 23613 ft 336 kts 280°
2026-05-04 01:30 38.26688 107.15833 23651 ft 333 kts 280°
2026-05-04 01:30 38.27013 107.12887 23689 ft 341 kts 280°
2026-05-04 01:30 38.27338 107.09914 23685 ft 343 kts 280°
2026-05-04 01:30 38.27665 107.06920 23678 ft 344 kts 280°
2026-05-04 01:31 38.27995 107.03896 23388 ft 345 kts 280°
2026-05-04 01:31 38.28323 107.00876 23015 ft 342 kts 279°
2026-05-04 01:31 38.28646 106.97900 22642 ft 340 kts 279°
2026-05-04 01:31 38.28965 106.94953 22274 ft 338 kts 279°
2026-05-04 01:32 38.29286 106.91976 21898 ft 337 kts 279°
2026-05-04 01:32 38.29601 106.89059 21530 ft 337 kts 279°
2026-05-04 01:32 38.29917 106.86116 21162 ft 335 kts 279°
2026-05-04 01:32 38.30233 106.83168 20787 ft 333 kts 279°
2026-05-04 01:33 38.30542 106.80270 20421 ft 331 kts 279°
2026-05-04 01:33 38.30850 106.77388 20060 ft 329 kts 279°
2026-05-04 01:33 38.31156 106.74515 19698 ft 328 kts 279°
2026-05-04 01:33 38.31458 106.71671 19340 ft 326 kts 279°
2026-05-04 01:34 38.31761 106.68809 18982 ft 325 kts 279°
2026-05-04 01:34 38.32058 106.65998 18628 ft 324 kts 278°
2026-05-04 01:34 38.32356 106.63166 18270 ft 322 kts 278°
2026-05-04 01:34 38.32653 106.60342 17912 ft 321 kts 278°
2026-05-04 01:35 38.32948 106.57535 17557 ft 320 kts 278°
2026-05-04 01:35 38.33241 106.54732 17200 ft 318 kts 278°
2026-05-04 01:35 38.33412 106.51981 16857 ft 317 kts 269°
2026-05-04 01:35 38.33087 106.49198 16518 ft 316 kts 255°
2026-05-04 01:36 38.32261 106.46635 16220 ft 315 kts 242°
2026-05-04 01:36 38.30967 106.44395 16027 ft 314 kts 228°
2026-05-04 01:36 38.29296 106.42524 15134 ft 332 kts 216°
2026-05-04 01:36 38.27260 106.41135 14361 ft 338 kts 202°
2026-05-04 01:37 38.24991 106.40375 13947 ft 332 kts 189°
2026-05-04 01:37 38.22731 106.40292 13569 ft 326 kts 176°
2026-05-04 01:37 38.20499 106.40636 13213 ft 317 kts 179°
2026-05-04 01:37 38.18348 106.40656 12873 ft 308 kts 184°
2026-05-04 01:38 38.16207 106.40493 12532 ft 300 kts 186°
2026-05-04 01:38 38.14171 106.40270 12208 ft 293 kts 187°
2026-05-04 01:38 38.12147 106.40017 11884 ft 287 kts 187°
2026-05-04 01:38 38.10181 106.39755 11565 ft 281 kts 189°
2026-05-04 01:39 38.08346 106.39149 11266 ft 272 kts 204°
2026-05-04 01:39 38.06678 106.38072 11056 ft 262 kts 210°
2026-05-04 01:39 38.05122 106.36990 11030 ft 245 kts 210°
2026-05-04 01:39 38.03601 106.36188 11015 ft 231 kts 194°
2026-05-04 01:40 38.02084 106.36056 11052 ft 213 kts 175°
2026-05-04 01:40 38.00666 106.36580 11020 ft 212 kts 154°
2026-05-04 01:40 37.99479 106.37712 11040 ft 217 kts 134°
2026-05-04 01:40 37.98685 106.39330 11036 ft 223 kts 105°
2026-05-04 01:41 37.98795 106.41207 11059 ft 209 kts 63°
2026-05-04 01:41 37.99504 106.42768 11048 ft 200 kts 59°
2026-05-04 01:41 38.00213 106.44266 11039 ft 200 kts 59°
2026-05-04 01:41 38.00938 106.45796 11046 ft 200 kts 59°
2026-05-04 01:42 38.01654 106.47308 11051 ft 201 kts 59°
2026-05-04 01:42 38.02373 106.48827 11059 ft 202 kts 59°
2026-05-04 01:42 38.03198 106.50256 11133 ft 201 kts 33°
2026-05-04 01:42 38.04494 106.50729 11354 ft 197 kts 348°
2026-05-04 01:43 38.05652 106.49950 11581 ft 192 kts 304°
2026-05-04 01:43 38.06065 106.48375 11815 ft 189 kts 274°
2026-05-04 01:43 38.06175 106.46735 12005 ft 189 kts 268°
2026-05-04 01:43 38.06083 106.45088 12173 ft 188 kts 265°
2026-05-04 01:44 38.06387 106.43496 12312 ft 191 kts 309°
2026-05-04 01:44 38.07526 106.42666 12540 ft 198 kts 354°
2026-05-04 01:44 38.08849 106.43120 12772 ft 206 kts 39°
2026-05-04 01:44 38.09560 106.44665 13008 ft 211 kts 85°
2026-05-04 01:45 38.09218 106.46440 13250 ft 210 kts 131°
2026-05-04 01:45 38.08031 106.47383 13492 ft 204 kts 177°
2026-05-04 01:45 38.06038 106.45556 13980 ft 194 kts 268°
2026-05-04 01:46 38.06431 106.43955 14216 ft 195 kts 314°
2026-05-04 01:46 38.07609 106.43124 14476 ft 197 kts 334°
2026-05-04 01:46 38.08555 106.41953 14663 ft 197 kts 288°
2026-05-04 01:46 38.08678 106.40243 14920 ft 196 kts 278°
2026-05-04 01:47 38.09237 106.38685 15134 ft 195 kts 300°
2026-05-04 01:47 38.09503 106.37012 15337 ft 198 kts 266°
2026-05-04 01:47 38.09312 106.35289 15548 ft 199 kts 262°
2026-05-04 01:47 38.09096 106.33559 15722 ft 198 kts 261°
2026-05-04 01:48 38.08871 106.31817 15717 ft 204 kts 262°
2026-05-04 01:48 38.08639 106.29993 14700 ft 231 kts 262°
2026-05-04 01:48 38.08391 106.27963 13312 ft 249 kts 262°
2026-05-04 01:48 38.08140 106.25764 11993 ft 254 kts 262°
2026-05-04 01:49 38.07937 106.23784 12192 ft 199 kts 265°
2026-05-04 01:49 38.08269 106.22220 11784 ft 192 kts 305°
2026-05-04 01:49 38.09395 106.21368 11161 ft 195 kts 351°
2026-05-04 01:49 38.10681 106.21740 10585 ft 197 kts 35°
2026-05-04 01:50 38.11591 106.22986 10066 ft 194 kts 50°
2026-05-04 01:50 38.12515 106.24235 9508 ft 195 kts 45°
2026-05-04 01:50 38.13508 106.25406 8943 ft 196 kts 42°
2026-05-04 01:50 38.14537 106.26533 8382 ft 197 kts 42°
2026-05-04 01:51 38.15641 106.27515 7815 ft 198 kts 29°
2026-05-04 01:51 38.16859 106.28344 7251 ft 198 kts 30°
2026-05-04 01:51 38.18050 106.29178 6683 ft 198 kts 31°
2026-05-04 01:51 38.19229 106.30074 6116 ft 197 kts 33°
2026-05-04 01:52 38.20353 106.30923 5921 ft 174 kts 33°
2026-05-04 01:52 38.21333 106.31645 5867 ft 157 kts 33°
2026-05-04 01:52 38.22285 106.32307 5943 ft 158 kts 26°
2026-05-04 01:52 38.23282 106.32931 6035 ft 160 kts 30°
2026-05-04 01:53 38.24265 106.33609 5970 ft 162 kts 31°
2026-05-04 01:53 38.22919 106.32604 5935 ft 162 kts 33°
2026-05-04 01:53 38.18343 106.27438 5926 ft 156 kts 39°
2026-05-04 01:53 38.18999 106.28542 5768 ft 155 kts 72°
2026-05-04 01:54 38.19396 106.29797 5939 ft 155 kts 66°
2026-05-04 01:54 38.20200 106.30747 5937 ft 162 kts 30°
2026-05-04 01:54 38.21186 106.31421 5793 ft 163 kts 31°
2026-05-04 01:54 38.22171 106.32113 5591 ft 160 kts 32°
2026-05-04 01:55 38.23146 106.32806 5387 ft 158 kts 32°
2026-05-04 01:55 38.24103 106.33488 5187 ft 156 kts 32°
2026-05-04 01:55 38.25028 106.34149 4982 ft 153 kts 32°
2026-05-04 01:55 38.25977 106.34833 4793 ft 156 kts 32°
2026-05-04 01:56 38.26931 106.35510 4589 ft 157 kts 32°
2026-05-04 01:56 38.27870 106.36172 4337 ft 156 kts 31°
2026-05-04 01:56 38.28826 106.36822 4100 ft 152 kts 32°
2026-05-04 01:56 38.29697 106.37487 3927 ft 142 kts 32°
2026-05-04 01:57 38.30559 106.38097 3799 ft 142 kts 31°
2026-05-04 01:57 38.31419 106.38721 3814 ft 147 kts 32°
2026-05-04 01:57 38.32284 106.39401 4188 ft 145 kts 36°
2026-05-04 01:57 38.33222 106.40189 4188 ft 179 kts 36°
2026-05-04 01:58 38.34345 106.41151 4341 ft 207 kts 36°
2026-05-04 01:58 38.35621 106.42255 4595 ft 234 kts 36°
2026-05-04 01:58 38.37104 106.43294 4961 ft 256 kts 22°
2026-05-04 01:58 38.38873 106.43906 5461 ft 273 kts
2026-05-04 01:59 38.40817 106.44022 5912 ft 292 kts 357°
2026-05-04 01:59 38.42913 106.43626 5956 ft 305 kts 345°
2026-05-04 01:59 38.44851 106.42741 5933 ft 286 kts 333°
2026-05-04 01:59 38.46467 106.41460 5922 ft 267 kts 320°
2026-05-04 02:00 38.47730 106.39858 5920 ft 248 kts 306°
2026-05-04 02:00 38.48589 106.38039 5924 ft 228 kts 290°
2026-05-04 02:00 38.49001 106.36181 5916 ft 209 kts 273°
2026-05-04 02:00 38.48974 106.34356 5956 ft 212 kts 256°
2026-05-04 02:01 38.48494 106.32472 6004 ft 232 kts 241°
2026-05-04 02:01 38.47615 106.30746 5969 ft 233 kts 226°
2026-05-04 02:01 38.46745 106.29024 5963 ft 235 kts 247°
2026-05-04 02:01 38.45873 106.27323 5942 ft 230 kts 212°
2026-05-04 02:02 38.44475 106.26326 5942 ft 227 kts 204°
2026-05-04 02:02 38.43054 106.25451 5916 ft 227 kts 204°
2026-05-04 02:02 38.41626 106.24580 5917 ft 228 kts 204°
2026-05-04 02:02 38.40210 106.23721 5913 ft 228 kts 204°
2026-05-04 02:03 38.38771 106.22847 5912 ft 226 kts 204°
2026-05-04 02:03 38.37888 106.22311 5914 ft 227 kts 204°
2026-05-04 02:03 38.36454 106.21439 5911 ft 228 kts 204°
2026-05-04 02:03 38.35034 106.20576 5905 ft 227 kts 204°
2026-05-04 02:04 38.33603 106.19705 5906 ft 227 kts 204°
2026-05-04 02:04 38.32173 106.18835 5903 ft 227 kts 204°
2026-05-04 02:04 38.30690 106.17934 5939 ft 251 kts 204°
2026-05-04 02:04 38.29036 106.16936 5938 ft 269 kts 204°
2026-05-04 02:05 38.27336 106.15912 5910 ft 273 kts 203°
2026-05-04 02:05 38.25616 106.14915 5894 ft 272 kts 202°
2026-05-04 02:05 38.23881 106.13933 5912 ft 271 kts 202°
2026-05-04 02:05 38.22145 106.12952 5854 ft 272 kts 202°
2026-05-04 02:06 38.20432 106.11993 5739 ft 272 kts 202°
2026-05-04 02:06 38.18691 106.11028 5626 ft 271 kts 202°
2026-05-04 02:06 38.16966 106.10081 5512 ft 271 kts 202°
2026-05-04 02:06 38.15232 106.09132 5398 ft 271 kts 202°
2026-05-04 02:07 38.13490 106.08176 5287 ft 270 kts 202°
2026-05-04 02:07 38.11742 106.07356 5169 ft 268 kts 195°
2026-05-04 02:07 38.09947 106.06818 5055 ft 266 kts 189°
2026-05-04 02:07 38.08095 106.06553 4896 ft 264 kts 182°
2026-05-04 02:08 38.06269 106.06580 4815 ft 263 kts 173°
2026-05-04 02:08 38.04604 106.07441 4807 ft 263 kts 139°
2026-05-04 02:08 38.03661 106.09300 4644 ft 245 kts 102°
2026-05-04 02:08 38.03777 106.11329 4774 ft 225 kts 76°
2026-05-04 02:09 38.04250 106.13246 5205 ft 229 kts 74°
2026-05-04 02:09 38.04743 106.15119 5619 ft 213 kts 74°
2026-05-04 02:09 38.05191 106.16756 5837 ft 184 kts 74°
2026-05-04 02:09 38.05611 106.18269 5846 ft 178 kts 74°
2026-05-04 02:10 38.06018 106.19750 5856 ft 180 kts 74°
2026-05-04 02:10 38.06721 106.21068 5875 ft 178 kts 36°
2026-05-04 02:10 38.07719 106.21809 5882 ft 161 kts 32°
2026-05-04 02:10 38.08678 106.22498 5880 ft 157 kts 32°
2026-05-04 02:11 38.09634 106.23180 5903 ft 157 kts 32°
2026-05-04 02:11 38.10555 106.23920 5897 ft 157 kts 50°
2026-05-04 02:11 38.11408 106.24780 5912 ft 160 kts 30°
2026-05-04 02:11 38.12291 106.25639 5918 ft 161 kts 33°
2026-05-04 02:12 38.13351 106.26104 5932 ft 162 kts 20°
2026-05-04 02:12 38.14414 106.26614 5647 ft 164 kts 31°
2026-05-04 02:12 38.15384 106.27312 5592 ft 157 kts 32°
2026-05-04 02:12 38.16331 106.28018 5611 ft 158 kts 31°
2026-05-04 02:13 38.17292 106.28715 5644 ft 159 kts 32°
2026-05-04 02:13 38.18257 106.29401 5683 ft 160 kts 30°
2026-05-04 02:13 38.19250 106.30061 5724 ft 160 kts 32°
2026-05-04 02:13 38.20208 106.30789 5763 ft 160 kts 34°
2026-05-04 02:14 38.21158 106.31504 5800 ft 159 kts 32°
2026-05-04 02:14 38.22151 106.32143 5643 ft 162 kts 30°
2026-05-04 02:14 38.23145 106.32807 5409 ft 159 kts 31°
2026-05-04 02:14 38.24105 106.33489 5193 ft 158 kts 32°
2026-05-04 02:15 38.25061 106.34173 4995 ft 156 kts 31°
2026-05-04 02:15 38.26018 106.34857 4786 ft 157 kts 31°
2026-05-04 02:15 38.26968 106.35535 4582 ft 157 kts 32°
2026-05-04 02:15 38.27910 106.36217 4376 ft 156 kts 32°
2026-05-04 02:16 38.28850 106.36915 4173 ft 153 kts 31°
2026-05-04 02:16 38.29765 106.37536 3992 ft 148 kts 30°
2026-05-04 02:16 38.30663 106.38168 3827 ft 144 kts 34°
2026-05-04 02:16 38.31443 106.38744 3749 ft 93 kts 31°